Regional Weather Roundup
Issued by NWS

Home | Current Version | Previous Version | Graphics & Text | Print | Product List | Glossary On
Versions: 1 2 3 4 5 6 7 8 9 10 11 12 13 14 15 16 17 18 19 20 21 22 23 24 25 26 27 28 29 30
000
ASUS45 KBOU 291207
RWRCO

WEATHER ROUNDUP FOR COLORADO
NATIONAL WEATHER SERVICE DENVER/BOULDER CO
600 AM MDT WED OCT 29 2014

NOTE: "FAIR" INDICATES FEW OR NO CLOUDS BELOW 12000 FEET WITH NO
SIGNIFICANT WEATHER AND/OR OBSTRUCTIONS TO VISIBILITY.

COZ001>005-013-030-031-291300-
...NORTHWEST COLORADO...

CITY           SKY/WX    TMP DP  RH WIND       PRES   REMARKS
CRAIG          CLEAR     20  16  84 CALM      30.32S
HAYDEN         CLEAR     27  18  69 E9        30.32S WCI  17
MEEKER         PTCLDY    26  20  77 CALM      30.32S
MOUNT WERNER   NOT AVBL
STEAMBOAT SPGS CLEAR     21  18  88 CALM      30.34S
WALDEN         CLEAR     23  12  63 E8        30.31R WCI  14
$$

COZ006>008-011-291300-
...WEST CENTRAL VALLEYS...

CITY           SKY/WX    TMP DP  RH WIND       PRES   REMARKS
GRAND JUNCTION CLEAR     30  15  53 E6        30.30S WCI  24
MONTROSE       PTCLDY    29  15  56 S8        30.36R WCI  21
EAGLE          PTCLDY    21  12  68 CALM      30.40S
RIFLE          PTCLDY    25  14  63 VRB3      30.34S
DELTA          PTCLDY    31  16  52 CALM      30.35R
NUCLA          PTCLDY    32  12  43 SE5       30.37R WCI  27
$$

COZ017>023-064>068-291300-
...SOUTHWEST COLORADO...

CITY           SKY/WX    TMP DP  RH WIND       PRES   REMARKS
DURANGO        PTCLDY    24  18  77 E3        30.31S
CORTEZ         CLEAR     25  15  66 E6        30.31R WCI  18
PAGOSA SPRINGS PTCLDY    28  17  62 CALM      30.35R
TELLURIDE      PTCLDY    34  13  42 SE5       30.42R WCI  30
WOLF CREEK PAS CLEAR     30   1  29 SW3       30.47S
$$

COZ009-010-012-014-032>034-037-058>063-291300-
...CENTRAL COLORADO...

CITY           SKY/WX    TMP DP  RH WIND       PRES   REMARKS
ASPEN          CLEAR     26  13  57 S7        30.35F WCI  18
BUENA VISTA    CLEAR     33   4  30 SW5       30.32R WCI  28
COPPER MTN     PTCLDY    30   9  40 W10G22    30.44S WCI  21
BERTHOUD PASS  FAIR      23  19  86 NW24G32   30.42S WCI   7
COTTONWOOD PAS CLEAR     41   1  19 NW9G17    30.35S
GUNNISON       CLEAR     14   0  52 CALM      30.43S
KREMMLING      PTCLDY    19  16  86 CALM        N/A
LEADVILLE      CLEAR     26   8  46 NE8       30.37S WCI  18
MONARCH PASS   CLEAR     28   3  34 W39       30.52S WCI  11
SALIDA         CLEAR     30   8  40 CALM      30.39S
SUNLIGHT       PTCLDY    32   5  32 CALM      30.44S
WILKERSON PASS NOT AVBL
$$

COZ069>075-291300-
...SAN LUIS VALLEY/SANGRE DE CRISTO MOUNTAINS...

CITY           SKY/WX    TMP DP  RH WIND       PRES   REMARKS
ALAMOSA        MOCLDY    19   9  65 W6        30.35R WCI  11
LA VETA PASS   CLEAR     30   3  31 S9G16     30.35F WCI  22
SAGUACHE       PTCLDY    28   3  34 W6        30.36S WCI  22
$$

COZ035-036-038>040-291300-
...NORTHERN COLORADO FRONT RANGE...

CITY           SKY/WX    TMP DP  RH WIND       PRES   REMARKS
DENVER INTL AP CLEAR     35  21  56 SW8       30.17F WCI  29
DMNS CITY PARK   N/A     34  24  67 S5        30.18F WCI  30
AURORA         CLEAR     40  17  38 S6        30.19S
FRONT RANGE AP CLEAR     43  19  39 SW8       30.18S
ERIE MUNI ARPT CLEAR     28  24  86 CALM      30.18S
BOULDER MUN AP CLEAR     36  19  51 W3        30.18S
CENTENNIAL     CLEAR     33  19  56 SE6       30.19S WCI  28
BROOMFIELD     PTCLDY    37  23  56 SW5       30.18S
FORT COLLINS   CLEAR     32  21  64 CALM      30.19R
LONGMONT       CLEAR     29  23  79 CALM      30.20S
$$

COZ041-046-047-076>085-087-088-291300-
...PIKES PEAK/PALMER DIVIDE AND SOUTHERN FOOTHILLS...

CITY           SKY/WX    TMP DP  RH WIND       PRES   REMARKS
COLO. SPRINGS  PTCLDY    32  17  54 N8        30.23R WCI  25
A. F. ACADEMY  CLEAR     31  13  48 NE6       30.23R WCI  25
ELLICOTT       NOT AVBL
FALCON         PTCLDY    34  13  41 NW8       30.24S WCI  27
FORT CARSON    PTCLDY    30  20  67 NW10      30.20S WCI  21
LIMON          CLEAR     23  19  85 N5        30.20S WCI  17
MONUMENT HILL  PTCLDY    32  14  47 SW9       30.23R WCI  24
TRINIDAD       CLEAR     34  22  61 NW9       30.22S WCI  27
$$

COZ042>045-048>051-090-091-291300-
...NORTHEAST COLORADO...

CITY           SKY/WX    TMP DP  RH WIND       PRES   REMARKS
GREELEY ARPT   PTCLDY    25  14  63 NW3       30.19S
AKRON          PTCLDY    35  24  64 W10       30.16S WCI  27
BURLINGTON     CLEAR     32  25  75 W10       30.17S WCI  24
WRAY           PTCLDY    27  22  82 W5        30.16S WCI  22
STERLING       PTCLDY    27  23  86 SW9       30.16S WCI  17
HOLYOKE        PTCLDY    28  23  80 W6        30.15S WCI  22
FORT MORGAN    PTCLDY    23  19  84 W7        30.17S WCI  15
$$

COZ086-089-092>099-291300-
...SOUTHEAST COLORADO...

CITY           SKY/WX    TMP DP  RH WIND       PRES   REMARKS
PUEBLO         MOCLDY    30  21  69 W3        30.20R
LA JUNTA       PTCLDY    33  25  72 W8        30.19S WCI  26
LAMAR          CLEAR     28  25  88 SW5       30.17S WCI  23
SPRINGFIELD      N/A     34  29  82 NW6       30.19R WCI  29
$$



USA.gov is the U.S. government's official web portal to all federal, state and local government web resources and services.